Time,TemperatureF,DewpointF,PressureIn,WindDirection,WindDirectionDegrees,WindSpeedMPH,WindSpeedGustMPH,Humidity,HourlyPrecipIn,Conditions,Clouds,dailyrainin,SoftwareType,DateUTC
2013-02-19 00:00:00,45.8,37.6,29.96,WSW,240,8.1,8.1,73,0.00,CLR,,0.00,WeatherDisplay:10.37,2013-02-19 08:00:00,
2013-02-19 00:05:00,45.6,37.8,29.96,West,280,2.3,2.3,74,0.00,CLR,,0.00,WeatherDisplay:10.37,2013-02-19 08:05:00,
2013-02-19 00:10:00,45.4,37.6,29.96,WSW,243,5.8,5.8,74,0.00,CLR,,0.00,WeatherDisplay:10.37,2013-02-19 08:10:00,
2013-02-19 00:15:00,45.2,37.4,29.96,WNW,283,0.0,0.0,74,0.00,CLR,,0.00,WeatherDisplay:10.37,2013-02-19 08:15:00,
2013-02-19 00:20:00,44.8,37.4,29.96,West,264,1.1,1.1,75,0.00,CLR,,0.00,WeatherDisplay:10.37,2013-02-19 08:20:00,
2013-02-19 00:25:00,44.5,37.4,29.96,NNW,329,3.5,3.5,76,0.00,CLR,,0.00,WeatherDisplay:10.37,2013-02-19 08:25:00,
2013-02-19 00:30:00,44.6,37.2,29.96,WNW,301,1.1,1.1,75,0.00,CLR,,0.00,WeatherDisplay:10.37,2013-02-19 08:30:00,
2013-02-19 00:35:00,44.4,37.0,29.96,NW,315,2.3,2.3,75,0.00,CLR,,0.00,WeatherDisplay:10.37,2013-02-19 08:35:00,
2013-02-19 00:41:00,44.7,36.9,29.96,NW,314,5.8,5.8,74,0.00,CLR,,0.00,WeatherDisplay:10.37,2013-02-19 08:41:00,
2013-02-19 00:46:00,44.6,36.8,29.96,NNW,348,2.3,2.3,74,0.00,CLR,,0.00,WeatherDisplay:10.37,2013-02-19 08:46:00,
2013-02-19 00:51:00,43.6,36.2,29.96,NNE,22,1.1,1.1,75,0.00,CLR,,0.00,WeatherDisplay:10.37,2013-02-19 08:51:00,
2013-02-19 00:56:00,42.8,36.4,29.96,ENE,63,1.1,1.1,78,0.00,CLR,,0.00,WeatherDisplay:10.37,2013-02-19 08:56:00,
2013-02-19 01:01:00,42.4,36.0,29.96,NE,41,2.3,2.3,78,0.00,CLR,,0.00,WeatherDisplay:10.37,2013-02-19 09:01:00,
2013-02-19 01:06:00,42.2,36.5,29.96,NW,314,2.3,2.3,80,0.00,CLR,,0.00,WeatherDisplay:10.37,2013-02-19 09:06:00,
2013-02-19 01:11:00,42.7,36.6,29.96,NNW,334,3.0,3.0,79,0.00,CLR,,0.00,WeatherDisplay:10.37,2013-02-19 09:11:00,
2013-02-19 01:16:00,43.4,36.7,29.96,NNW,335,5.8,5.8,77,0.00,CLR,,0.00,WeatherDisplay:10.37,2013-02-19 09:16:00,
2013-02-19 01:21:00,44.2,37.1,29.96,WNW,301,5.8,5.8,76,0.00,CLR,,0.00,WeatherDisplay:10.37,2013-02-19 09:21:00,
2013-02-19 01:26:00,44.5,37.1,29.95,West,271,1.1,0.0,75,0.00,CLR,,0.00,WeatherDisplay:10.37,2013-02-19 09:26:00,
2013-02-19 01:31:00,44.0,36.6,29.95,NNW,344,1.1,0.0,75,0.00,CLR,,0.00,WeatherDisplay:10.37,2013-02-19 09:31:00,
2013-02-19 01:36:00,43.5,36.4,29.95,North,360,2.3,2.3,76,0.00,CLR,,0.00,WeatherDisplay:10.37,2013-02-19 09:36:00,
2013-02-19 01:41:00,42.3,35.9,29.95,North,360,0.0,0.0,78,0.00,CLR,,0.00,WeatherDisplay:10.37,2013-02-19 09:41:00,
2013-02-19 01:46:00,41.4,35.7,29.95,North,359,0.0,0.0,80,0.00,CLR,,0.00,WeatherDisplay:10.37,2013-02-19 09:46:00,
2013-02-19 01:52:00,40.7,35.3,29.95,NNW,329,3.5,3.5,81,0.00,CLR,,0.00,WeatherDisplay:10.37,2013-02-19 09:52:00,
2013-02-19 01:57:00,40.2,35.4,29.94,NNW,335,0.0,0.0,83,0.00,CLR,,0.00,WeatherDisplay:10.37,2013-02-19 09:57:00,
2013-02-19 02:02:00,40.1,35.4,29.94,WNW,301,1.1,1.1,83,0.00,CLR,,0.00,WeatherDisplay:10.37,2013-02-19 10:02:00,
2013-02-19 02:07:00,40.6,35.8,29.94,NW,322,0.0,0.0,83,0.00,CLR,,0.00,WeatherDisplay:10.37,2013-02-19 10:07:00,
2013-02-19 02:12:00,40.0,34.6,29.94,NNE,21,2.3,2.3,81,0.00,CLR,,0.00,WeatherDisplay:10.37,2013-02-19 10:12:00,
2013-02-19 02:17:00,39.3,34.9,29.94,NE,37,0.0,0.0,84,0.00,CLR,,0.00,WeatherDisplay:10.37,2013-02-19 10:17:00,
2013-02-19 02:23:00,39.2,35.1,29.93,NE,37,0.0,0.0,85,0.00,CLR,,0.00,WeatherDisplay:10.37,2013-02-19 10:23:00,
2013-02-19 02:28:00,39.4,35.3,29.93,NE,37,0.0,0.0,85,0.00,CLR,,0.00,WeatherDisplay:10.37,2013-02-19 10:28:00,
2013-02-19 02:33:00,38.9,34.5,29.93,West,270,2.3,2.3,84,0.00,CLR,,0.00,WeatherDisplay:10.37,2013-02-19 10:33:00,
2013-02-19 02:38:00,38.4,34.3,29.93,North,349,1.1,1.1,85,0.00,CLR,,0.00,WeatherDisplay:10.37,2013-02-19 10:38:00,
2013-02-19 02:43:00,38.2,34.4,29.93,NE,56,2.3,2.3,86,0.00,CLR,,0.00,WeatherDisplay:10.37,2013-02-19 10:43:00,
2013-02-19 02:48:00,37.8,34.0,29.93,ENE,60,1.1,1.1,86,0.00,CLR,,0.00,WeatherDisplay:10.37,2013-02-19 10:48:00,
2013-02-19 02:53:00,37.5,34.0,29.93,NE,50,2.3,2.3,87,0.00,CLR,,0.00,WeatherDisplay:10.37,2013-02-19 10:53:00,
2013-02-19 02:58:00,37.4,34.2,29.93,NNW,347,1.1,1.1,88,0.00,CLR,,0.00,WeatherDisplay:10.37,2013-02-19 10:58:00,
2013-02-19 03:03:00,37.7,34.2,29.93,NE,56,1.1,1.1,87,0.00,CLR,,0.00,WeatherDisplay:10.37,2013-02-19 11:03:00,
2013-02-19 03:08:00,38.5,34.7,29.93,NE,36,1.1,1.1,86,0.00,CLR,,0.00,WeatherDisplay:10.37,2013-02-19 11:08:00,
2013-02-19 03:14:00,38.6,34.5,29.93,South,186,1.1,1.1,85,0.00,CLR,,0.00,WeatherDisplay:10.37,2013-02-19 11:14:00,
2013-02-19 03:19:00,38.7,34.6,29.92,ENE,77,2.3,2.3,85,0.00,CLR,,0.00,WeatherDisplay:10.37,2013-02-19 11:19:00,
2013-02-19 03:24:00,39.2,35.1,29.92,ENE,68,3.5,3.5,85,0.00,CLR,,0.00,WeatherDisplay:10.37,2013-02-19 11:24:00,
2013-02-19 03:29:00,39.3,34.9,29.92,ENE,78,3.5,3.5,84,0.00,CLR,,0.00,WeatherDisplay:10.37,2013-02-19 11:29:00,
2013-02-19 03:34:00,39.2,34.8,29.92,SW,226,3.5,3.5,84,0.00,CLR,,0.00,WeatherDisplay:10.37,2013-02-19 11:34:00,
2013-02-19 03:39:00,39.5,35.4,29.92,WSW,240,2.3,2.3,85,0.00,CLR,,0.00,WeatherDisplay:10.37,2013-02-19 11:39:00,
2013-02-19 03:44:00,39.9,35.8,29.92,WSW,239,0.0,0.0,85,0.00,CLR,,0.00,WeatherDisplay:10.37,2013-02-19 11:44:00,
2013-02-19 03:49:00,40.2,35.8,29.92,WSW,239,0.0,0.0,84,0.00,CLR,,0.00,WeatherDisplay:10.37,2013-02-19 11:49:00,
2013-02-19 03:54:00,40.3,35.8,29.92,WSW,242,1.1,1.1,84,0.00,CLR,,0.00,WeatherDisplay:10.37,2013-02-19 11:54:00,
2013-02-19 03:59:00,40.4,35.9,29.92,WSW,240,1.1,1.1,84,0.00,CLR,,0.00,WeatherDisplay:10.37,2013-02-19 11:59:00,
2013-02-19 04:04:00,40.4,35.9,29.92,WSW,240,1.1,0.0,84,0.00,CLR,,0.00,WeatherDisplay:10.37,2013-02-19 12:04:00,
2013-02-19 04:09:00,40.4,35.9,29.92,WSW,240,1.1,1.1,84,0.00,CLR,,0.00,WeatherDisplay:10.37,2013-02-19 12:09:00,
2013-02-19 04:14:00,40.4,35.9,29.91,SW,218,1.1,1.1,84,0.00,CLR,,0.00,WeatherDisplay:10.37,2013-02-19 12:14:00,
2013-02-19 04:19:00,40.2,36.1,29.91,SSW,208,1.1,1.2,85,0.00,CLR,,0.00,WeatherDisplay:10.37,2013-02-19 12:19:00,
2013-02-19 04:24:00,40.0,35.9,29.91,SSE,168,1.1,1.1,85,0.00,CLR,,0.00,WeatherDisplay:10.37,2013-02-19 12:24:00,
2013-02-19 04:29:00,39.8,35.7,29.91,SW,226,1.1,1.1,85,0.00,CLR,,0.00,WeatherDisplay:10.37,2013-02-19 12:29:00,
2013-02-19 04:34:00,39.8,35.7,29.91,SSW,211,2.3,2.3,85,0.00,CLR,,0.00,WeatherDisplay:10.37,2013-02-19 12:34:00,
2013-02-19 04:39:00,39.8,35.7,29.91,SSW,198,2.3,2.3,85,0.00,CLR,,0.00,WeatherDisplay:10.37,2013-02-19 12:39:00,
2013-02-19 04:44:00,39.8,35.7,29.91,SSW,205,1.1,1.1,85,0.00,CLR,,0.00,WeatherDisplay:10.37,2013-02-19 12:44:00,
2013-02-19 04:50:00,39.8,36.0,29.91,SW,225,1.1,1.1,86,0.00,CLR,,0.00,WeatherDisplay:10.37,2013-02-19 12:50:00,
2013-02-19 04:55:00,39.9,36.3,29.91,South,187,3.5,3.5,87,0.00,CLR,,0.00,WeatherDisplay:10.37,2013-02-19 12:55:00,
2013-02-19 05:00:00,39.9,36.3,29.91,SSW,204,2.3,2.3,87,0.00,CLR,,0.00,WeatherDisplay:10.37,2013-02-19 13:00:00,
2013-02-19 05:05:00,40.0,36.7,29.91,SW,231,1.1,1.1,88,0.00,CLR,,0.00,WeatherDisplay:10.37,2013-02-19 13:05:00,
2013-02-19 05:10:00,40.0,36.7,29.91,SSW,207,0.0,0.0,88,0.00,CLR,,0.00,WeatherDisplay:10.37,2013-02-19 13:10:00,
2013-02-19 05:15:00,40.0,36.7,29.90,South,172,2.0,2.0,88,0.00,CLR,,0.00,WeatherDisplay:10.37,2013-02-19 13:15:00,
2013-02-19 05:20:00,40.0,37.0,29.90,SE,145,1.1,1.1,89,0.00,CLR,,0.00,WeatherDisplay:10.37,2013-02-19 13:20:00,
2013-02-19 05:26:00,39.9,36.9,29.89,SE,134,1.1,1.1,89,0.00,CLR,,0.00,WeatherDisplay:10.37,2013-02-19 13:26:00,
2013-02-19 05:31:00,39.9,37.2,29.89,SSE,150,0.0,0.0,90,0.00,CLR,,0.00,WeatherDisplay:10.37,2013-02-19 13:31:00,
2013-02-19 05:36:00,40.1,37.4,29.89,SSE,148,4.0,4.0,90,0.00,CLR,,0.00,WeatherDisplay:10.37,2013-02-19 13:36:00,
2013-02-19 05:41:00,40.4,37.4,29.89,South,175,5.8,5.8,89,0.00,CLR,,0.00,WeatherDisplay:10.37,2013-02-19 13:41:00,
2013-02-19 05:46:00,40.6,37.3,29.89,SSW,193,6.0,6.0,88,0.00,CLR,,0.00,WeatherDisplay:10.37,2013-02-19 13:46:00,
2013-02-19 05:51:00,40.7,37.4,29.89,SSE,163,5.8,5.8,88,0.00,CLR,,0.00,WeatherDisplay:10.37,2013-02-19 13:51:00,
2013-02-19 05:56:00,40.7,37.4,29.89,SSW,204,6.9,6.9,88,0.00,CLR,,0.00,WeatherDisplay:10.37,2013-02-19 13:56:00,
2013-02-19 06:02:00,40.8,37.5,29.88,South,172,5.8,5.8,88,0.00,CLR,,0.00,WeatherDisplay:10.37,2013-02-19 14:02:00,
2013-02-19 06:07:00,40.9,37.6,29.88,SSW,208,4.6,4.6,88,0.00,CLR,,0.00,WeatherDisplay:10.37,2013-02-19 14:07:00,
2013-02-19 06:12:00,40.9,37.6,29.88,SSE,152,6.9,6.9,88,0.00,CLR,,0.00,WeatherDisplay:10.37,2013-02-19 14:12:00,
2013-02-19 06:17:00,40.9,37.9,29.88,SSE,155,4.6,4.6,89,0.00,CLR,,0.00,WeatherDisplay:10.37,2013-02-19 14:17:00,
2013-02-19 06:22:00,40.9,38.2,29.87,SSE,154,5.8,5.8,90,0.00,CLR,,0.00,WeatherDisplay:10.37,2013-02-19 14:22:00,
2013-02-19 06:28:00,40.9,38.2,29.87,South,180,3.5,3.5,90,0.00,CLR,,0.00,WeatherDisplay:10.37,2013-02-19 14:28:00,
2013-02-19 06:33:00,40.9,38.5,29.87,SSE,154,8.1,8.1,91,0.00,CLR,,0.00,WeatherDisplay:10.37,2013-02-19 14:33:00,
2013-02-19 06:38:00,41.0,38.6,29.86,SSE,167,7.0,7.0,91,0.00,CLR,,0.00,WeatherDisplay:10.37,2013-02-19 14:38:00,
2013-02-19 06:43:00,41.1,38.7,29.86,South,169,6.9,6.9,91,0.00,CLR,,0.00,WeatherDisplay:10.37,2013-02-19 14:43:00,
2013-02-19 06:48:00,41.1,38.7,29.86,South,175,5.8,5.8,91,0.00,CLR,,0.00,WeatherDisplay:10.37,2013-02-19 14:48:00,
2013-02-19 06:54:00,41.3,38.9,29.85,SSW,194,5.8,5.8,91,0.00,CLR,,0.00,WeatherDisplay:10.37,2013-02-19 14:54:00,
2013-02-19 06:59:00,41.6,39.2,29.86,SE,139,3.5,3.5,91,0.00,CLR,,0.00,WeatherDisplay:10.37,2013-02-19 14:59:00,
2013-02-19 07:04:00,41.6,39.2,29.86,SSW,197,4.6,4.6,91,0.00,CLR,,0.00,WeatherDisplay:10.37,2013-02-19 15:04:00,
2013-02-19 07:09:00,41.7,39.3,29.86,SSE,157,5.8,5.8,91,0.00,CLR,,0.00,WeatherDisplay:10.37,2013-02-19 15:09:00,
2013-02-19 07:14:00,41.7,39.3,29.86,SSE,149,4.6,4.6,91,0.00,CLR,,0.00,WeatherDisplay:10.37,2013-02-19 15:14:00,
2013-02-19 07:19:00,41.7,39.5,29.85,SSE,166,4.6,4.6,92,0.00,CLR,,0.00,WeatherDisplay:10.37,2013-02-19 15:19:00,
2013-02-19 07:24:00,41.8,39.6,29.85,SSE,155,3.5,3.5,92,0.00,CLR,,0.00,WeatherDisplay:10.37,2013-02-19 15:24:00,
2013-02-19 07:29:00,42.1,39.9,29.84,SE,127,3.5,3.5,92,0.00,CLR,,0.00,WeatherDisplay:10.37,2013-02-19 15:29:00,
2013-02-19 07:34:00,42.5,40.6,29.85,South,170,3.5,3.5,93,0.00,CLR,,0.00,WeatherDisplay:10.37,2013-02-19 15:34:00,
2013-02-19 07:39:00,42.7,40.5,29.85,SSW,210,3.5,3.5,92,0.01,RA,,0.01,WeatherDisplay:10.37,2013-02-19 15:39:00,
2013-02-19 07:44:00,42.6,40.4,29.85,SSE,167,4.0,4.0,92,0.01,RA,,0.01,WeatherDisplay:10.37,2013-02-19 15:44:00,
2013-02-19 07:49:00,42.6,40.4,29.85,SSE,160,6.0,6.0,92,0.01,CLR,,0.01,WeatherDisplay:10.37,2013-02-19 15:49:00,
2013-02-19 07:54:00,42.6,40.4,29.85,SE,146,5.8,5.8,92,0.02,RA,,0.03,WeatherDisplay:10.37,2013-02-19 15:54:00,
2013-02-19 07:59:00,42.6,40.7,29.84,SE,143,5.8,5.8,93,0.04,RA,,0.04,WeatherDisplay:10.37,2013-02-19 15:59:00,
2013-02-19 08:04:00,42.7,40.8,29.84,SE,146,4.6,4.6,93,0.05,RA,,0.05,WeatherDisplay:10.37,2013-02-19 16:04:00,
2013-02-19 08:09:00,42.9,41.0,29.84,ESE,122,4.6,4.6,93,0.05,RA,,0.05,WeatherDisplay:10.37,2013-02-19 16:09:00,
2013-02-19 08:14:00,43.3,41.4,29.83,SE,142,4.0,4.0,93,0.05,CLR,,0.05,WeatherDisplay:10.37,2013-02-19 16:14:00,
2013-02-19 08:19:00,43.6,41.7,29.83,SSE,150,7.0,7.0,93,0.05,CLR,,0.05,WeatherDisplay:10.37,2013-02-19 16:19:00,
2013-02-19 08:24:00,43.8,41.9,29.83,SSE,156,3.5,3.5,93,0.05,CLR,,0.05,WeatherDisplay:10.37,2013-02-19 16:24:00,
2013-02-19 08:29:00,44.1,42.2,29.83,SSE,167,3.5,3.5,93,0.05,CLR,,0.05,WeatherDisplay:10.37,2013-02-19 16:29:00,
2013-02-19 08:35:00,44.4,42.5,29.83,SE,131,4.6,4.6,93,0.05,CLR,,0.05,WeatherDisplay:10.37,2013-02-19 16:35:00,
2013-02-19 08:40:00,44.8,42.6,29.83,SE,129,1.0,1.0,92,0.04,CLR,,0.05,WeatherDisplay:10.37,2013-02-19 16:40:00,
2013-02-19 08:45:00,45.0,42.8,29.84,NNW,329,3.5,3.5,92,0.05,RA,,0.06,WeatherDisplay:10.37,2013-02-19 16:45:00,
2013-02-19 08:50:00,44.9,42.7,29.83,ESE,111,1.1,1.2,92,0.07,RA,,0.08,WeatherDisplay:10.37,2013-02-19 16:50:00,
2013-02-19 08:55:00,44.5,41.7,29.83,West,259,8.1,8.1,90,0.07,RA,,0.10,WeatherDisplay:10.37,2013-02-19 16:55:00,
2013-02-19 09:00:00,44.3,40.7,29.84,West,260,8.1,8.1,87,0.08,RA,,0.13,WeatherDisplay:10.37,2013-02-19 17:00:00,
2013-02-19 09:05:00,44.1,41.1,29.84,WSW,246,1.1,0.0,89,0.09,RA,,0.15,WeatherDisplay:10.37,2013-02-19 17:05:00,
2013-02-19 09:10:00,43.9,40.9,29.83,SW,218,2.3,2.3,89,0.10,RA,,0.15,WeatherDisplay:10.37,2013-02-19 17:10:00,
2013-02-19 09:15:00,43.7,40.7,29.83,SSE,161,2.3,0.0,89,0.11,RA,,0.16,WeatherDisplay:10.37,2013-02-19 17:15:00,
2013-02-19 09:20:00,43.6,40.6,29.83,NE,41,3.5,4.4,89,0.11,RA,,0.16,WeatherDisplay:10.37,2013-02-19 17:20:00,
2013-02-19 09:25:00,43.8,40.8,29.83,NE,50,5.8,5.8,89,0.11,CLR,,0.16,WeatherDisplay:10.37,2013-02-19 17:25:00,
2013-02-19 09:30:00,43.9,40.0,29.83,ENE,74,3.5,3.5,86,0.12,RA,,0.17,WeatherDisplay:10.37,2013-02-19 17:30:00,
2013-02-19 09:35:00,44.1,40.2,29.82,NNW,338,2.3,2.3,86,0.12,RA,,0.17,WeatherDisplay:10.37,2013-02-19 17:35:00,
2013-02-19 09:40:00,44.2,40.6,29.82,WSW,248,1.1,1.1,87,0.12,,,0.17,WeatherDisplay:10.37,2013-02-19 17:40:00,
2013-02-19 09:45:00,44.3,41.0,29.83,WNW,290,2.3,2.3,88,0.11,CLR,,0.17,WeatherDisplay:10.37,2013-02-19 17:45:00,
2013-02-19 09:50:00,44.4,41.1,29.83,NW,316,3.5,3.5,88,0.09,CLR,,0.17,WeatherDisplay:10.37,2013-02-19 17:50:00,
2013-02-19 09:55:00,44.5,40.9,29.83,NW,326,3.5,3.5,87,0.08,RA,,0.18,WeatherDisplay:10.37,2013-02-19 17:55:00,
2013-02-19 10:00:00,44.6,41.0,29.82,ESE,103,3.5,3.5,87,0.06,RA,,0.18,WeatherDisplay:10.37,2013-02-19 18:00:00,
2013-02-19 10:05:00,44.5,40.9,29.82,ENE,64,5.8,5.8,87,0.04,,,0.18,WeatherDisplay:10.37,2013-02-19 18:05:00,
2013-02-19 10:10:00,44.7,41.1,29.82,NE,51,2.0,2.0,87,0.03,CLR,,0.18,WeatherDisplay:10.37,2013-02-19 18:10:00,
2013-02-19 10:15:00,44.8,40.9,29.82,NNE,25,2.3,2.3,86,0.02,CLR,,0.18,WeatherDisplay:10.37,2013-02-19 18:15:00,
2013-02-19 10:20:00,45.0,41.1,29.82,NNE,25,0.0,0.0,86,0.02,CLR,,0.18,WeatherDisplay:10.37,2013-02-19 18:20:00,
2013-02-19 10:25:00,45.4,41.8,29.81,South,191,1.1,1.2,87,0.02,CLR,,0.18,WeatherDisplay:10.37,2013-02-19 18:25:00,
2013-02-19 10:30:00,45.8,42.4,29.81,South,191,1.1,1.1,88,0.01,CLR,,0.18,WeatherDisplay:10.37,2013-02-19 18:30:00,
2013-02-19 10:35:00,46.3,42.6,29.81,South,191,2.3,2.3,87,0.01,CLR,,0.18,WeatherDisplay:10.37,2013-02-19 18:35:00,
2013-02-19 10:40:00,46.4,42.1,29.81,ESE,118,2.3,2.3,85,0.01,CLR,,0.18,WeatherDisplay:10.37,2013-02-19 18:40:00,
2013-02-19 10:45:00,46.7,42.7,29.81,South,185,3.5,3.5,86,0.01,CLR,,0.18,WeatherDisplay:10.37,2013-02-19 18:45:00,
2013-02-19 10:50:00,46.7,42.4,29.81,South,187,2.3,2.3,85,0.01,CLR,,0.18,WeatherDisplay:10.37,2013-02-19 18:50:00,
2013-02-19 10:55:00,46.9,42.9,29.80,West,275,1.0,1.0,86,0.00,CLR,,0.18,WeatherDisplay:10.37,2013-02-19 18:55:00,
2013-02-19 11:00:00,47.1,42.8,29.80,SW,235,2.3,2.3,85,0.00,CLR,,0.18,WeatherDisplay:10.37,2013-02-19 19:00:00,
2013-02-19 11:05:00,47.4,42.8,29.80,SW,220,2.3,2.3,84,0.00,CLR,,0.18,WeatherDisplay:10.37,2013-02-19 19:05:00,
2013-02-19 11:11:00,47.7,42.8,29.80,SW,235,1.1,1.1,83,0.00,CLR,,0.18,WeatherDisplay:10.37,2013-02-19 19:11:00,
2013-02-19 11:16:00,47.8,41.6,29.80,SW,225,3.5,3.5,79,0.00,CLR,,0.18,WeatherDisplay:10.37,2013-02-19 19:16:00,
2013-02-19 11:21:00,47.8,41.9,29.80,SW,231,3.0,3.0,80,0.00,CLR,,0.18,WeatherDisplay:10.37,2013-02-19 19:21:00,
2013-02-19 11:26:00,47.8,41.3,29.79,SW,226,0.0,0.3,78,0.00,CLR,,0.18,WeatherDisplay:10.37,2013-02-19 19:26:00,
2013-02-19 11:31:00,48.3,41.8,29.79,SSE,152,2.3,0.0,78,0.00,CLR,,0.18,WeatherDisplay:10.37,2013-02-19 19:31:00,
2013-02-19 11:37:00,49.0,41.4,29.79,SSW,199,4.6,4.6,75,0.00,CLR,,0.18,WeatherDisplay:10.37,2013-02-19 19:37:00,
2013-02-19 11:42:00,49.1,41.5,29.79,ENE,66,1.1,1.1,75,0.00,CLR,,0.18,WeatherDisplay:10.37,2013-02-19 19:42:00,
2013-02-19 11:47:00,49.2,40.6,29.79,SSW,207,3.5,3.5,72,0.00,CLR,,0.18,WeatherDisplay:10.37,2013-02-19 19:47:00,
2013-02-19 11:53:00,49.3,41.4,29.79,SW,231,4.0,4.0,74,0.00,CLR,,0.18,WeatherDisplay:10.37,2013-02-19 19:53:00,
2013-02-19 11:58:00,49.1,40.5,29.79,West,278,3.5,3.5,72,0.00,CLR,,0.18,WeatherDisplay:10.37,2013-02-19 19:58:00,
2013-02-19 12:03:00,46.7,39.2,29.80,WNW,290,12.7,12.7,75,0.00,CLR,,0.18,WeatherDisplay:10.37,2013-02-19 20:03:00,
2013-02-19 12:08:00,45.1,39.0,29.80,NNE,23,17.3,17.3,79,0.00,CLR,,0.18,WeatherDisplay:10.37,2013-02-19 20:08:00,
2013-02-19 12:13:00,43.9,38.8,29.80,NW,307,20.7,20.7,82,0.00,CLR,,0.18,WeatherDisplay:10.37,2013-02-19 20:13:00,
2013-02-19 12:18:00,43.3,39.1,29.80,NNE,17,4.6,4.6,85,0.01,RA,,0.19,WeatherDisplay:10.37,2013-02-19 20:18:00,
2013-02-19 12:23:00,42.9,38.7,29.80,NNE,22,6.9,6.9,85,0.01,RA,,0.19,WeatherDisplay:10.37,2013-02-19 20:23:00,
2013-02-19 12:28:00,43.3,40.0,29.79,NNW,345,3.5,3.5,88,0.01,CLR,,0.19,WeatherDisplay:10.37,2013-02-19 20:28:00,
2013-02-19 12:33:00,43.4,39.8,29.79,NNE,23,2.3,2.3,87,0.01,CLR,,0.19,WeatherDisplay:10.37,2013-02-19 20:33:00,
2013-02-19 12:38:00,43.6,40.0,29.79,NE,41,3.5,4.0,87,0.01,CLR,,0.19,WeatherDisplay:10.37,2013-02-19 20:38:00,
2013-02-19 12:43:00,44.0,39.8,29.79,NE,37,4.6,4.6,85,0.01,CLR,,0.19,WeatherDisplay:10.37,2013-02-19 20:43:00,
2013-02-19 12:48:00,44.3,39.8,29.78,NE,44,4.0,4.0,84,0.01,CLR,,0.19,WeatherDisplay:10.37,2013-02-19 20:48:00,
2013-02-19 12:53:00,44.7,39.9,29.78,NNE,30,3.5,3.5,83,0.01,CLR,,0.19,WeatherDisplay:10.37,2013-02-19 20:53:00,
2013-02-19 12:59:00,45.0,39.8,29.78,ENE,68,3.5,3.5,82,0.01,CLR,,0.19,WeatherDisplay:10.37,2013-02-19 20:59:00,
2013-02-19 13:04:00,45.5,40.0,29.78,NNW,330,3.5,3.5,81,0.01,CLR,,0.19,WeatherDisplay:10.37,2013-02-19 21:04:00,
2013-02-19 13:09:00,45.9,39.4,29.78,North,350,3.5,3.5,78,0.01,CLR,,0.19,WeatherDisplay:10.37,2013-02-19 21:09:00,
2013-02-19 13:14:00,46.3,39.5,29.78,WSW,246,3.5,3.5,77,0.01,CLR,,0.19,WeatherDisplay:10.37,2013-02-19 21:14:00,
2013-02-19 13:19:00,46.9,40.1,29.77,NW,311,2.3,2.3,77,0.00,CLR,,0.19,WeatherDisplay:10.37,2013-02-19 21:19:00,
2013-02-19 13:24:00,47.3,39.8,29.77,WNW,285,2.3,2.3,75,0.00,CLR,,0.19,WeatherDisplay:10.37,2013-02-19 21:24:00,
2013-02-19 13:29:00,47.6,39.0,29.76,WNW,302,0.0,0.0,72,0.00,CLR,,0.19,WeatherDisplay:10.37,2013-02-19 21:29:00,
2013-02-19 13:34:00,48.1,39.5,29.76,WNW,302,0.0,0.0,72,0.00,CLR,,0.19,WeatherDisplay:10.37,2013-02-19 21:34:00,
2013-02-19 13:39:00,48.1,39.1,29.76,NW,323,2.3,2.3,71,0.00,CLR,,0.19,WeatherDisplay:10.37,2013-02-19 21:39:00,
2013-02-19 13:44:00,48.1,39.5,29.76,WNW,297,3.0,3.0,72,0.00,CLR,,0.19,WeatherDisplay:10.37,2013-02-19 21:44:00,
2013-02-19 13:49:00,48.3,39.0,29.76,WNW,300,2.3,2.3,70,0.00,CLR,,0.19,WeatherDisplay:10.37,2013-02-19 21:49:00,
2013-02-19 13:54:00,48.5,37.7,29.76,NNW,330,3.5,3.5,66,0.00,CLR,,0.19,WeatherDisplay:10.37,2013-02-19 21:54:00,
2013-02-19 13:59:00,49.2,39.5,29.75,SW,221,3.5,3.5,69,0.00,CLR,,0.19,WeatherDisplay:10.37,2013-02-19 21:59:00,
2013-02-19 14:04:00,49.5,38.2,29.75,NW,307,3.0,3.0,65,0.00,CLR,,0.19,WeatherDisplay:10.37,2013-02-19 22:04:00,
2013-02-19 14:10:00,49.5,38.6,29.75,WSW,257,1.1,1.1,66,0.00,CLR,,0.19,WeatherDisplay:10.37,2013-02-19 22:10:00,
2013-02-19 14:15:00,50.3,38.6,29.75,WNW,295,5.0,5.0,64,0.00,CLR,,0.19,WeatherDisplay:10.37,2013-02-19 22:15:00,
2013-02-19 14:20:00,50.0,37.1,29.75,NW,310,9.2,9.2,61,0.00,CLR,,0.19,WeatherDisplay:10.37,2013-02-19 22:20:00,
2013-02-19 14:25:00,48.9,35.6,29.75,WNW,299,10.4,10.4,60,0.00,CLR,,0.19,WeatherDisplay:10.37,2013-02-19 22:25:00,
2013-02-19 14:30:00,48.4,36.4,29.75,NW,319,8.1,8.1,63,0.00,CLR,,0.19,WeatherDisplay:10.37,2013-02-19 22:30:00,
2013-02-19 14:35:00,47.7,34.9,29.75,WNW,290,11.5,11.5,61,0.00,CLR,,0.19,WeatherDisplay:10.37,2013-02-19 22:35:00,
2013-02-19 14:40:00,47.9,34.3,29.75,NNW,333,11.5,11.5,59,0.00,CLR,,0.19,WeatherDisplay:10.37,2013-02-19 22:40:00,
2013-02-19 14:45:00,48.7,35.8,29.74,NNW,338,9.2,9.2,61,0.00,CLR,,0.19,WeatherDisplay:10.37,2013-02-19 22:45:00,
2013-02-19 14:50:00,49.3,37.2,29.74,NNW,342,6.0,6.0,63,0.00,CLR,,0.19,WeatherDisplay:10.37,2013-02-19 22:50:00,
2013-02-19 14:55:00,50.1,37.2,29.74,NNW,343,6.9,6.9,61,0.00,CLR,,0.19,WeatherDisplay:10.37,2013-02-19 22:55:00,
2013-02-19 15:00:00,50.4,36.6,29.74,WNW,303,8.1,8.1,59,0.00,CLR,,0.19,WeatherDisplay:10.37,2013-02-19 23:00:00,
2013-02-19 15:05:00,50.2,35.5,29.74,NW,309,9.2,9.2,57,0.00,CLR,,0.19,WeatherDisplay:10.37,2013-02-19 23:05:00,
2013-02-19 15:10:00,49.7,34.2,29.74,NNW,330,12.0,12.0,55,0.00,CLR,,0.19,WeatherDisplay:10.37,2013-02-19 23:10:00,
2013-02-19 15:15:00,49.2,34.2,29.74,NNW,338,11.5,11.5,56,0.00,CLR,,0.19,WeatherDisplay:10.37,2013-02-19 23:15:00,
2013-02-19 15:20:00,49.0,33.5,29.74,NW,304,8.1,8.1,55,0.00,CLR,,0.19,WeatherDisplay:10.37,2013-02-19 23:20:00,
2013-02-19 15:25:00,48.9,33.0,29.74,NNW,340,11.5,11.5,54,0.00,CLR,,0.19,WeatherDisplay:10.37,2013-02-19 23:25:00,
2013-02-19 15:30:00,48.7,34.1,29.74,WNW,298,5.8,5.8,57,0.00,CLR,,0.19,WeatherDisplay:10.37,2013-02-19 23:30:00,
2013-02-19 15:35:00,48.3,33.8,29.75,NW,308,6.9,6.9,57,0.00,CLR,,0.19,WeatherDisplay:10.37,2013-02-19 23:35:00,
2013-02-19 15:40:00,48.2,33.7,29.75,NW,315,5.8,5.8,57,0.00,CLR,,0.19,WeatherDisplay:10.37,2013-02-19 23:40:00,
2013-02-19 15:45:00,48.5,33.9,29.74,WNW,293,3.5,3.5,57,0.00,CLR,,0.19,WeatherDisplay:10.37,2013-02-19 23:45:00,
2013-02-19 15:50:00,49.1,34.1,29.74,NW,315,4.6,4.6,56,0.00,CLR,,0.19,WeatherDisplay:10.37,2013-02-19 23:50:00,
2013-02-19 15:55:00,49.7,35.5,29.74,WSW,246,3.5,3.5,58,0.00,CLR,,0.19,WeatherDisplay:10.37,2013-02-19 23:55:00,
2013-02-19 16:01:00,50.3,34.7,29.74,NNW,339,4.6,4.6,55,0.00,CLR,,0.19,WeatherDisplay:10.37,2013-02-20 00:01:00,
2013-02-19 16:06:00,50.2,34.6,29.74,NNW,331,8.1,8.1,55,0.00,CLR,,0.19,WeatherDisplay:10.37,2013-02-20 00:06:00,
2013-02-19 16:11:00,50.1,34.1,29.74,NW,323,11.5,11.5,54,0.00,CLR,,0.19,WeatherDisplay:10.37,2013-02-20 00:11:00,
2013-02-19 16:16:00,50.0,34.5,29.74,NNW,342,11.5,11.5,55,0.00,CLR,,0.19,WeatherDisplay:10.37,2013-02-20 00:16:00,
2013-02-19 16:21:00,49.9,34.8,29.74,North,357,11.5,11.5,56,0.00,CLR,,0.19,WeatherDisplay:10.37,2013-02-20 00:21:00,
2013-02-19 16:26:00,49.7,31.8,29.74,WNW,301,12.7,12.7,50,0.00,CLR,,0.19,WeatherDisplay:10.37,2013-02-20 00:26:00,
2013-02-19 16:31:00,49.8,33.3,29.74,NW,319,4.0,4.0,53,0.00,CLR,,0.19,WeatherDisplay:10.37,2013-02-20 00:31:00,
2013-02-19 16:36:00,49.9,33.0,29.74,NW,319,6.9,6.9,52,0.00,CLR,,0.19,WeatherDisplay:10.37,2013-02-20 00:36:00,
2013-02-19 16:41:00,49.5,33.5,29.74,West,281,6.9,6.9,54,0.00,CLR,,0.19,WeatherDisplay:10.37,2013-02-20 00:41:00,
2013-02-19 16:46:00,49.2,32.8,29.74,WNW,295,10.4,10.4,53,0.00,CLR,,0.19,WeatherDisplay:10.37,2013-02-20 00:46:00,
2013-02-19 16:51:00,49.0,33.1,29.74,WNW,297,5.8,5.8,54,0.00,CLR,,0.19,WeatherDisplay:10.37,2013-02-20 00:51:00,
2013-02-19 16:56:00,48.9,33.0,29.74,NNW,332,8.1,8.1,54,0.00,CLR,,0.19,WeatherDisplay:10.37,2013-02-20 00:56:00,
2013-02-19 17:01:00,48.7,33.7,29.74,NNW,333,6.0,6.0,56,0.00,CLR,,0.19,WeatherDisplay:10.37,2013-02-20 01:01:00,
2013-02-19 17:06:00,48.5,33.1,29.74,NW,307,11.5,11.5,55,0.00,CLR,,0.19,WeatherDisplay:10.37,2013-02-20 01:06:00,
2013-02-19 17:11:00,48.1,32.2,29.74,WSW,250,6.9,6.9,54,0.00,CLR,,0.19,WeatherDisplay:10.37,2013-02-20 01:11:00,
2013-02-19 17:16:00,47.9,32.0,29.74,North,356,9.2,9.2,54,0.00,CLR,,0.19,WeatherDisplay:10.37,2013-02-20 01:16:00,
2013-02-19 17:21:00,47.6,31.3,29.74,WNW,303,10.4,10.4,53,0.00,CLR,,0.19,WeatherDisplay:10.37,2013-02-20 01:21:00,
2013-02-19 17:26:00,47.3,31.5,29.74,NW,319,8.1,8.1,54,0.00,CLR,,0.19,WeatherDisplay:10.37,2013-02-20 01:26:00,
2013-02-19 17:31:00,46.9,31.1,29.75,NNW,334,8.1,8.1,54,0.00,CLR,,0.19,WeatherDisplay:10.37,2013-02-20 01:31:00,
2013-02-19 17:36:00,46.5,31.6,29.75,NNW,340,8.1,8.1,56,0.00,CLR,,0.19,WeatherDisplay:10.37,2013-02-20 01:36:00,
2013-02-19 17:42:00,46.2,31.4,29.75,NNW,338,10.4,10.4,56,0.00,CLR,,0.19,WeatherDisplay:10.37,2013-02-20 01:42:00,
2013-02-19 17:47:00,46.0,31.6,29.75,NW,322,10.4,10.4,57,0.00,CLR,,0.19,WeatherDisplay:10.37,2013-02-20 01:47:00,
2013-02-19 17:52:00,45.7,31.8,29.75,NNW,329,5.8,5.8,58,0.00,CLR,,0.19,WeatherDisplay:10.37,2013-02-20 01:52:00,
2013-02-19 17:57:00,45.5,32.0,29.75,NW,307,8.1,8.1,59,0.00,CLR,,0.19,WeatherDisplay:10.37,2013-02-20 01:57:00,
2013-02-19 18:02:00,45.4,32.3,29.75,North,353,10.4,10.4,60,0.00,CLR,,0.19,WeatherDisplay:10.37,2013-02-20 02:02:00,
2013-02-19 18:07:00,45.3,32.2,29.75,North,11,4.6,4.6,60,0.00,CLR,,0.19,WeatherDisplay:10.37,2013-02-20 02:07:00,
2013-02-19 18:12:00,45.1,32.4,29.75,NNW,347,6.9,6.9,61,0.00,CLR,,0.19,WeatherDisplay:10.37,2013-02-20 02:12:00,
2013-02-19 18:17:00,44.1,33.1,29.76,NNE,26,3.5,3.5,65,0.00,CLR,,0.19,WeatherDisplay:10.37,2013-02-20 02:17:00,
2013-02-19 18:22:00,42.9,33.1,29.76,NNE,15,3.5,3.5,68,0.00,CLR,,0.19,WeatherDisplay:10.37,2013-02-20 02:22:00,
2013-02-19 18:28:00,42.3,32.8,29.76,North,11,3.5,3.5,69,0.00,CLR,,0.19,WeatherDisplay:10.37,2013-02-20 02:28:00,
2013-02-19 18:33:00,41.8,33.1,29.77,NNE,29,3.5,3.5,71,0.00,CLR,,0.19,WeatherDisplay:10.37,2013-02-20 02:33:00,
2013-02-19 18:38:00,41.3,33.0,29.77,North,360,3.5,3.5,72,0.00,CLR,,0.19,WeatherDisplay:10.37,2013-02-20 02:38:00,
2013-02-19 18:43:00,41.3,33.3,29.77,NNE,15,4.6,4.6,73,0.00,CLR,,0.19,WeatherDisplay:10.37,2013-02-20 02:43:00,
2013-02-19 18:48:00,41.2,33.2,29.77,NNW,338,3.5,3.5,73,0.00,CLR,,0.19,WeatherDisplay:10.37,2013-02-20 02:48:00,
2013-02-19 18:53:00,40.9,33.2,29.78,NNW,339,3.5,3.5,74,0.00,CLR,,0.19,WeatherDisplay:10.37,2013-02-20 02:53:00,
2013-02-19 18:58:00,41.1,33.4,29.78,WNW,303,3.5,3.5,74,0.00,CLR,,0.19,WeatherDisplay:10.37,2013-02-20 02:58:00,
2013-02-19 19:03:00,41.7,33.7,29.78,NW,310,4.6,4.6,73,0.00,CLR,,0.19,WeatherDisplay:10.37,2013-02-20 03:03:00,
2013-02-19 19:08:00,42.1,33.7,29.78,NNW,347,2.3,2.3,72,0.00,CLR,,0.19,WeatherDisplay:10.37,2013-02-20 03:08:00,
2013-02-19 19:13:00,42.3,33.9,29.79,NNE,15,3.5,3.5,72,0.00,CLR,,0.19,WeatherDisplay:10.37,2013-02-20 03:13:00,
2013-02-19 19:18:00,41.9,33.9,29.79,NNE,18,3.5,3.5,73,0.00,CLR,,0.19,WeatherDisplay:10.37,2013-02-20 03:18:00,
2013-02-19 19:23:00,41.5,33.8,29.79,NNW,347,3.5,3.5,74,0.00,CLR,,0.19,WeatherDisplay:10.37,2013-02-20 03:23:00,
2013-02-19 19:28:00,41.4,34.1,29.79,NW,314,2.3,2.3,75,0.00,CLR,,0.19,WeatherDisplay:10.37,2013-02-20 03:28:00,
2013-02-19 19:33:00,41.5,34.2,29.78,NNW,338,1.1,1.1,75,0.00,CLR,,0.19,WeatherDisplay:10.37,2013-02-20 03:33:00,
2013-02-19 19:38:00,41.3,34.3,29.78,NW,319,2.3,2.3,76,0.00,CLR,,0.19,WeatherDisplay:10.37,2013-02-20 03:38:00,
2013-02-19 19:43:00,41.3,34.3,29.78,NW,323,2.3,2.3,76,0.00,CLR,,0.19,WeatherDisplay:10.37,2013-02-20 03:43:00,
2013-02-19 19:48:00,41.3,34.3,29.79,NW,321,2.3,2.3,76,0.00,CLR,,0.19,WeatherDisplay:10.37,2013-02-20 03:48:00,
2013-02-19 19:53:00,41.3,34.3,29.79,NW,307,2.3,2.3,76,0.00,CLR,,0.19,WeatherDisplay:10.37,2013-02-20 03:53:00,
2013-02-19 19:58:00,41.5,34.2,29.79,NW,316,3.5,3.5,75,0.00,CLR,,0.19,WeatherDisplay:10.37,2013-02-20 03:58:00,
2013-02-19 20:03:00,41.8,34.1,29.79,NW,304,4.0,4.0,74,0.00,CLR,,0.19,WeatherDisplay:10.37,2013-02-20 04:03:00,
2013-02-19 20:08:00,41.8,34.1,29.79,NW,316,3.5,3.5,74,0.00,CLR,,0.19,WeatherDisplay:10.37,2013-02-20 04:08:00,
2013-02-19 20:13:00,41.9,34.2,29.80,NW,310,2.3,2.3,74,0.00,CLR,,0.19,WeatherDisplay:10.37,2013-02-20 04:13:00,
2013-02-19 20:18:00,42.0,34.3,29.80,WNW,299,3.5,3.5,74,0.00,CLR,,0.19,WeatherDisplay:10.37,2013-02-20 04:18:00,
2013-02-19 20:23:00,42.0,34.3,29.80,NNW,335,3.5,3.5,74,0.00,CLR,,0.19,WeatherDisplay:10.37,2013-02-20 04:23:00,
2013-02-19 20:28:00,41.9,34.2,29.80,NNW,329,3.5,3.5,74,0.00,CLR,,0.19,WeatherDisplay:10.37,2013-02-20 04:28:00,
2013-02-19 20:33:00,42.0,34.3,29.80,NW,325,3.5,3.5,74,0.00,CLR,,0.19,WeatherDisplay:10.37,2013-02-20 04:33:00,
2013-02-19 20:38:00,41.9,34.2,29.80,NNW,330,2.3,2.3,74,0.00,CLR,,0.19,WeatherDisplay:10.37,2013-02-20 04:38:00,
2013-02-19 20:44:00,41.9,34.2,29.81,NW,314,3.5,3.5,74,0.00,CLR,,0.19,WeatherDisplay:10.37,2013-02-20 04:44:00,
2013-02-19 20:49:00,41.8,34.1,29.81,NW,305,3.5,3.5,74,0.00,CLR,,0.19,WeatherDisplay:10.37,2013-02-20 04:49:00,
2013-02-19 20:54:00,41.7,34.0,29.81,NW,308,2.3,2.3,74,0.00,CLR,,0.19,WeatherDisplay:10.37,2013-02-20 04:54:00,
2013-02-19 20:59:00,41.8,34.1,29.81,WNW,297,3.5,3.5,74,0.00,CLR,,0.19,WeatherDisplay:10.37,2013-02-20 04:59:00,
2013-02-19 21:00:00,41.8,34.1,29.81,NW,305,5.8,5.8,74,0.00,CLR,,0.19,WeatherDisplay:10.37,2013-02-20 05:00:00,
2013-02-19 21:01:00,41.9,34.2,29.81,NW,304,4.6,4.6,74,0.00,CLR,,0.19,WeatherDisplay:10.37,2013-02-20 05:01:00,
2013-02-19 21:06:00,42.0,34.3,29.81,NNW,339,4.0,4.0,74,0.00,CLR,,0.19,WeatherDisplay:10.37,2013-02-20 05:06:00,
2013-02-19 21:09:00,42.2,34.2,29.81,NW,307,6.9,6.9,73,0.00,CLR,,0.19,WeatherDisplay:10.37,2013-02-20 05:09:00,
2013-02-19 21:14:00,42.3,34.3,29.81,WNW,297,8.1,8.1,73,0.00,CLR,,0.19,WeatherDisplay:10.37,2013-02-20 05:14:00,
2013-02-19 21:19:00,42.3,33.6,29.81,NW,319,4.6,4.6,71,0.00,CLR,,0.19,WeatherDisplay:10.37,2013-02-20 05:19:00,
2013-02-19 21:24:00,42.0,33.3,29.82,NW,324,5.8,5.8,71,0.00,CLR,,0.19,WeatherDisplay:10.37,2013-02-20 05:24:00,
2013-02-19 21:29:00,41.8,33.4,29.81,NNW,330,3.5,3.5,72,0.00,CLR,,0.19,WeatherDisplay:10.37,2013-02-20 05:29:00,
2013-02-19 21:34:00,41.5,33.5,29.81,West,266,2.3,2.3,73,0.00,CLR,,0.19,WeatherDisplay:10.37,2013-02-20 05:34:00,
2013-02-19 21:40:00,40.3,33.3,29.81,WSW,256,1.1,1.1,76,0.00,CLR,,0.19,WeatherDisplay:10.37,2013-02-20 05:40:00,
2013-02-19 21:45:00,39.7,33.4,29.81,NW,310,1.1,1.1,78,0.00,CLR,,0.19,WeatherDisplay:10.37,2013-02-20 05:45:00,
2013-02-19 21:50:00,39.4,33.1,29.82,North,6,1.1,1.1,78,0.00,CLR,,0.19,WeatherDisplay:10.37,2013-02-20 05:50:00,
2013-02-19 21:55:00,39.1,33.1,29.82,NE,51,3.5,3.5,79,0.00,CLR,,0.19,WeatherDisplay:10.37,2013-02-20 05:55:00,
2013-02-19 22:00:00,38.3,32.7,29.82,NNE,30,3.5,3.5,80,0.00,CLR,,0.19,WeatherDisplay:10.37,2013-02-20 06:00:00,
2013-02-19 22:05:00,37.7,32.7,29.82,NNW,338,3.5,3.5,82,0.00,CLR,,0.19,WeatherDisplay:10.37,2013-02-20 06:05:00,
2013-02-19 22:10:00,37.2,32.5,29.83,NNE,23,3.5,3.5,83,0.00,CLR,,0.19,WeatherDisplay:10.37,2013-02-20 06:10:00,
2013-02-19 22:15:00,36.4,32.0,29.83,NNE,25,3.5,3.5,84,0.00,CLR,,0.19,WeatherDisplay:10.37,2013-02-20 06:15:00,
2013-02-19 22:20:00,36.0,31.9,29.83,NNW,330,1.1,1.1,85,0.00,CLR,,0.19,WeatherDisplay:10.37,2013-02-20 06:20:00,
2013-02-19 22:25:00,35.8,32.0,29.83,NNW,345,2.3,2.3,86,0.00,CLR,,0.19,WeatherDisplay:10.37,2013-02-20 06:25:00,
2013-02-19 22:30:00,35.9,32.4,29.83,NNW,336,1.1,1.1,87,0.00,CLR,,0.19,WeatherDisplay:10.37,2013-02-20 06:30:00,
2013-02-19 22:35:00,35.9,32.1,29.84,WSW,245,1.1,1.1,86,0.00,CLR,,0.19,WeatherDisplay:10.37,2013-02-20 06:35:00,
2013-02-19 22:40:00,35.7,32.2,29.84,SSE,167,1.1,0.0,87,0.00,CLR,,0.19,WeatherDisplay:10.37,2013-02-20 06:40:00,
2013-02-19 22:45:00,35.7,32.2,29.84,SSE,167,0.0,0.0,87,0.00,CLR,,0.19,WeatherDisplay:10.37,2013-02-20 06:45:00,
2013-02-19 22:50:00,35.5,32.0,29.84,SSE,168,0.0,0.0,87,0.00,CLR,,0.19,WeatherDisplay:10.37,2013-02-20 06:50:00,
2013-02-19 22:55:00,35.4,31.9,29.85,East,96,2.3,2.3,87,0.00,CLR,,0.19,WeatherDisplay:10.37,2013-02-20 06:55:00,
2013-02-19 23:00:00,35.3,31.8,29.84,East,98,0.0,0.0,87,0.00,CLR,,0.19,WeatherDisplay:10.37,2013-02-20 07:00:00,
2013-02-19 23:05:00,34.9,31.1,29.84,East,98,0.0,0.0,86,0.00,CLR,,0.19,WeatherDisplay:10.37,2013-02-20 07:05:00,
2013-02-19 23:10:00,34.6,31.1,29.84,East,98,1.1,0.0,87,0.00,CLR,,0.19,WeatherDisplay:10.37,2013-02-20 07:10:00,
2013-02-19 23:15:00,34.5,31.3,29.85,East,98,0.0,0.0,88,0.00,CLR,,0.19,WeatherDisplay:10.37,2013-02-20 07:15:00,
2013-02-19 23:20:00,34.5,31.6,29.85,East,98,0.0,0.0,89,0.00,CLR,,0.19,WeatherDisplay:10.37,2013-02-20 07:20:00,
2013-02-19 23:25:00,34.5,31.6,29.85,East,97,0.0,0.0,89,0.00,CLR,,0.19,WeatherDisplay:10.37,2013-02-20 07:25:00,
2013-02-19 23:30:00,34.3,31.4,29.86,East,98,0.0,0.0,89,0.00,CLR,,0.19,WeatherDisplay:10.37,2013-02-20 07:30:00,
2013-02-19 23:35:00,34.1,31.2,29.86,East,97,0.0,0.0,89,0.00,CLR,,0.19,WeatherDisplay:10.37,2013-02-20 07:35:00,
2013-02-19 23:40:00,34.0,31.1,29.86,East,98,0.0,0.0,89,0.00,CLR,,0.19,WeatherDisplay:10.37,2013-02-20 07:40:00,
2013-02-19 23:45:00,34.1,31.5,29.86,East,97,1.1,1.1,90,0.00,CLR,,0.19,WeatherDisplay:10.37,2013-02-20 07:45:00,
2013-02-19 23:50:00,34.2,31.6,29.86,East,98,0.0,0.1,90,0.00,CLR,,0.19,WeatherDisplay:10.37,2013-02-20 07:50:00,
2013-02-19 23:55:00,34.1,31.2,29.86,East,98,0.0,0.0,89,0.00,CLR,,0.19,WeatherDisplay:10.37,2013-02-20 07:55:00,